Location: Fort Worth, Tx
(32.7431°N, 97.3695°W)
Time: 14:28:07
(UTC-04:00)

O/OREOS (USA 219) - Pass Details

Date: 22 March 2023
Orbit: 621 x 646 km, 72.0° (Epoch: 22 May)

Event Time Altitude Azimuth Distance (km) Brightness Sun altitude
Rises 07:33:38 0° 157° (SSE) 2,940 ? -12.8°
Reaches altitude 10° 07:36:47 10° 134° (SE) 2,035 ? -12.2°
Maximum altitude 07:39:20 15° 99° (E) 1,734 ? -11.6°
Drops below altitude 10° 07:41:54 10° 65° (ENE) 2,039 ? -11.1°
Sets 07:45:03 0° 42° (NE) 2,950 ? -10.4°
